| time (UTC) | temp F | wind direction | speed knots | gust knots | rain 1hr in | rain 24hr in | rain mn in | humidity % | barometer mb |
| 20260503050006 | 79 | 56 | 4.3 | 8.7 | 0.00 | 0.02 | 0.01 | 65 | 1018.0 |
| 20260503045623 | 79 | 55 | 3.5 | 7.8 | 0.00 | 0.02 | 0.01 | 64 | 1017.9 |
| 20260503044505 | 78 | 73 | 3.5 | 6.1 | 0.00 | 0.02 | 0.01 | 64 | 1018.0 |
| 20260503043818 | 79 | 63 | 4.3 | 8.7 | 0.00 | 0.02 | 0.01 | 62 | 1018.0 |
| 20260503042704 | 80 | 71 | 2.6 | 7.8 | 0.00 | 0.02 | 0.01 | 63 | 1018.1 |
| 20260503041804 | 79 | 74 | 2.6 | 8.7 | 0.00 | 0.02 | 0.01 | 58 | 1018.0 |
| 20260503040908 | 79 | 65 | 2.6 | 7.8 | 0.00 | 0.02 | 0.01 | 66 | 1017.9 |
| 20260503040006 | 77 | 81 | 3.5 | 8.7 | 0.00 | 0.02 | 0.01 | 67 | 1018.1 |
| 20260503035409 | 79 | 91 | 3.5 | 8.7 | 0.00 | 0.03 | 0.01 | 61 | 1018.2 |
| 20260503034505 | 79 | 82 | 3.5 | 5.2 | 0.00 | 0.03 | 0.01 | 65 | 1018.0 |
| 20260503033604 | 79 | 94 | 2.6 | 6.1 | 0.00 | 0.03 | 0.01 | 65 | 1018.1 |
| 20260503032713 | 79 | 85 | 2.6 | 5.2 | 0.00 | 0.03 | 0.01 | 67 | 1018.1 |
| 20260503031804 | 77 | 93 | 2.6 | 7.8 | 0.00 | 0.03 | 0.01 | 68 | 1018.2 |
| 20260503030903 | 78 | 105 | 2.6 | 6.1 | 0.00 | 0.03 | 0.01 | 66 | 1018.4 |
| 20260503030019 | 80 | 48 | 3.5 | 9.6 | 0.00 | 0.03 | 0.01 | 67 | 1018.4 |
| 20260503025404 | 79 | 61 | 3.5 | 9.6 | 0.00 | 0.03 | 0.01 | 66 | 1018.6 |
| 20260503024510 | 76 | 106 | 2.6 | 6.1 | 0.00 | 0.03 | 0.01 | 72 | 1018.8 |
| 20260503023605 | 78 | 116 | 2.6 | 6.1 | 0.00 | 0.03 | 0.01 | 70 | 1018.8 |
| 20260503022704 | 77 | 118 | 1.7 | 4.3 | 0.00 | 0.03 | 0.01 | 70 | 1018.9 |
| 20260503021809 | 79 | 76 | 0.9 | 4.3 | 0.00 | 0.03 | 0.01 | 68 | 1019.0 |
| 20260503021117 | 77 | 76 | 0.9 | 4.3 | 0.00 | 0.03 | 0.01 | 72 | 1019.1 |
| 20260503020005 | 76 | 96 | 1.7 | 6.1 | 0.00 | 0.03 | 0.01 | 72 | 1019.3 |
| 20260503015404 | 76 | 99 | 1.7 | 6.1 | 0.00 | 0.03 | 0.01 | 71 | 1019.6 |
| 20260503014505 | 76 | 105 | 2.6 | 7.8 | 0.00 | 0.03 | 0.01 | 72 | 1019.5 |
| 20260503013604 | 77 | 112 | 2.6 | 7.8 | 0.00 | 0.03 | 0.01 | 71 | 1019.6 |
| 20260503012703 | 77 | 146 | 0.9 | 5.2 | 0.00 | 0.03 | 0.01 | 72 | 1019.8 |
| 20260503011804 | 78 | 97 | 1.7 | 4.3 | 0.00 | 0.03 | 0.01 | 72 | 1020.2 |
| 20260503010904 | 77 | 94 | 1.7 | 4.3 | 0.00 | 0.03 | 0.01 | 74 | 1020.2 |
| 20260503010005 | 76 | 125 | 0.9 | 5.2 | 0.00 | 0.03 | 0.01 | 75 | 1020.4 |
| 20260503005409 | 76 | 149 | 2.6 | 7.8 | 0.00 | 0.03 | 0.01 | 73 | 1020.4 |
| 20260503004509 | 77 | 161 | 1.7 | 4.3 | 0.00 | 0.03 | 0.01 | 73 | 1020.5 |
| 20260503003603 | 77 | 161 | 2.6 | 8.7 | 0.00 | 0.03 | 0.01 | 73 | 1020.6 |
| 20260503002918 | 76 | 149 | 2.6 | 8.7 | 0.00 | 0.03 | 0.01 | 75 | 1020.7 |
| 20260503001808 | 75 | 131 | 2.6 | 8.7 | 0.00 | 0.09 | 0.01 | 76 | 1020.7 |
| 20260503000908 | 75 | 122 | 0.9 | 6.1 | 0.00 | 0.09 | 0.01 | 77 | 1020.8 |
| 20260503000010 | 76 | 174 | 1.7 | 5.2 | 0.00 | 0.09 | 0.01 | 77 | 1020.7 |
| 20260502235404 | 76 | 203 | 1.7 | 4.3 | 0.00 | 0.09 | 0.01 | 77 | 1020.6 |
| 20260502234506 | 74 | 197 | 1.7 | 4.3 | 0.00 | 0.09 | 0.01 | 79 | 1020.8 |
| 20260502233818 | 74 | 195 | 2.6 | 5.2 | 0.00 | 0.09 | 0.01 | 78 | 1020.9 |
| 20260502232703 | 73 | 202 | 2.6 | 5.2 | 0.00 | 0.09 | 0.01 | 79 | 1021.0 |
| 20260502231803 | 72 | 209 | 2.6 | 7.8 | 0.00 | 0.09 | 0.01 | 80 | 1021.1 |
| 20260502230903 | 72 | 193 | 1.7 | 5.2 | 0.00 | 0.09 | 0.01 | 81 | 1021.3 |
| 20260502230219 | 71 | 199 | 0.9 | 3.5 | 0.00 | 0.09 | 0.01 | 83 | 1021.1 |
| 20260502225619 | 70 | 202 | 0.9 | 3.5 | 0.00 | 0.09 | 0.01 | 84 | 1021.2 |
| 20260502224505 | 68 | 194 | 1.7 | 8.7 | 0.00 | 0.09 | 0.01 | 88 | 1021.1 |
| 20260502223609 | 68 | 204 | 2.6 | 5.2 | 0.00 | 0.09 | 0.01 | 90 | 1021.1 |
| 20260502222704 | 66 | 205 | 0.9 | 5.2 | 0.00 | 0.09 | 0.01 | 93 | 1021.1 |
| 20260502221804 | 65 | 202 | 0.9 | 5.2 | 0.00 | 0.09 | 0.01 | 96 | 1020.9 |
| 20260502220904 | 64 | 192 | 0.9 | 4.3 | 0.00 | 0.09 | 0.01 | 97 | 1020.8 |
| 20260502220219 | 64 | 207 | 0.0 | 3.5 | 0.00 | 0.09 | 0.01 | 97 | 1020.7 |
| 20260502215405 | 63 | 197 | 0.9 | 3.5 | 0.00 | 0.09 | 0.01 | 98 | 1020.7 |
| 20260502214505 | 63 | 203 | 0.9 | 3.5 | 0.00 | 0.09 | 0.01 | 98 | 1020.7 |
| 20260502213605 | 62 | 152 | 0.0 | 0.9 | 0.00 | 0.09 | 0.01 | 98 | 1020.6 |
| 20260502212708 | 62 | 183 | 0.9 | 3.5 | 0.00 | 0.09 | 0.01 | 98 | 1020.4 |
| 20260502211804 | 61 | 222 | 0.0 | 1.7 | 0.00 | 0.10 | 0.01 | 98 | 1020.5 |
| 20260502210904 | 60 | 0 | 0.0 | 0.0 | 0.00 | 0.10 | 0.01 | 98 | 1020.2 |
| 20260502210006 | 60 | 0 | 0.0 | 0.0 | 0.00 | 0.12 | 0.01 | 97 | 1020.3 |
| 20260502205409 | 60 | 0 | 0.0 | 0.0 | 0.00 | 0.13 | 0.01 | 98 | 1020.3 |
| 20260502204505 | 59 | 0 | 0.0 | 0.0 | 0.00 | 0.13 | 0.01 | 97 | 1020.0 |
| 20260502203819 | 59 | 229 | 0.0 | 0.9 | 0.00 | 0.13 | 0.01 | 97 | 1020.0 |
| 20260502202704 | 59 | 229 | 0.0 | 0.9 | 0.00 | 0.13 | 0.01 | 97 | 1019.8 |
| 20260502201804 | 59 | 0 | 0.0 | 0.0 | 0.00 | 0.16 | 0.01 | 97 | 1019.7 |
| 20260502201122 | 59 | 229 | 0.0 | 0.9 | 0.00 | 0.16 | 0.01 | 97 | 1019.8 |
| 20260502200010 | 59 | 0 | 0.0 | 0.0 | 0.00 | 0.16 | 0.01 | 97 | 1019.7 |
| 20260502195409 | 59 | 0 | 0.0 | 0.0 | 0.00 | 0.16 | 0.01 | 97 | 1019.6 |
| 20260502194505 | 59 | 229 | 0.0 | 0.9 | 0.00 | 0.16 | 0.01 | 97 | 1019.5 |
| 20260502193608 | 59 | 0 | 0.0 | 0.0 | 0.00 | 0.16 | 0.01 | 97 | 1019.4 |
| 20260502192704 | 59 | 0 | 0.0 | 0.0 | 0.00 | 0.16 | 0.01 | 97 | 1019.4 |
| 20260502191823 | 59 | 0 | 0.0 | 0.0 | 0.00 | 0.16 | 0.01 | 97 | 1019.5 |
| 20260502190904 | 59 | 229 | 0.0 | 0.9 | 0.00 | 0.16 | 0.01 | 97 | 1019.5 |
| 20260502190010 | 60 | 0 | 0.0 | 0.0 | 0.00 | 0.16 | 0.01 | 97 | 1019.5 |
| 20260502185404 | 60 | 0 | 0.0 | 0.0 | 0.00 | 0.16 | 0.01 | 97 | 1019.4 |
| 20260502184507 | 60 | 229 | 0.0 | 0.9 | 0.00 | 0.16 | 0.01 | 97 | 1019.3 |
| 20260502183606 | 60 | 0 | 0.0 | 0.0 | 0.00 | 0.16 | 0.01 | 97 | 1019.3 |
| 20260502182708 | 60 | 229 | 0.0 | 0.9 | 0.00 | 0.17 | 0.01 | 97 | 1019.5 |
| 20260502181805 | 60 | 0 | 0.0 | 0.0 | 0.00 | 0.19 | 0.01 | 97 | 1019.5 |
| 20260502180904 | 60 | 0 | 0.0 | 0.0 | 0.00 | 0.19 | 0.01 | 97 | 1019.5 |
| 20260502180224 | 60 | 229 | 0.0 | 1.7 | 0.00 | 0.19 | 0.01 | 97 | 1019.5 |
| 20260502163612 | 62 | 229 | 0.0 | 0.9 | 0.01 | 0.29 | 0.01 | 96 | 1019.9 |
| 20260502162713 | 62 | 225 | 0.0 | 1.7 | 0.00 | 0.28 | 0.00 | 96 | 1020.0 |
| 20260502161810 | 62 | 0 | 0.0 | 0.0 | 0.00 | 0.28 | 0.00 | 96 | 1019.9 |
| 20260502160906 | 63 | 0 | 0.0 | 0.0 | 0.00 | 0.28 | 0.00 | 96 | 1020.0 |
| 20260502151805 | 64 | 0 | 0.0 | 0.0 | 0.00 | 0.28 | 0.00 | 96 | 1020.4 |
| 20260502150904 | 64 | 0 | 0.0 | 0.0 | 0.00 | 0.28 | 0.00 | 96 | 1020.5 |
| 20260502150218 | 64 | 0 | 0.0 | 0.0 | 0.00 | 0.28 | 0.00 | 96 | 1020.6 |
| 20260502123603 | 67 | 214 | 0.0 | 1.7 | 0.00 | 0.30 | 0.28 | 96 | 1020.9 |
| 20260502122708 | 67 | 206 | 0.9 | 7.8 | 0.00 | 0.30 | 0.28 | 96 | 1021.0 |
| 20260502122023 | 67 | 213 | 0.9 | 3.5 | 0.00 | 0.30 | 0.28 | 96 | 1021.1 |
| 20260502121118 | 67 | 227 | 0.0 | 1.7 | 0.00 | 0.30 | 0.28 | 96 | 1021.2 |
| 20260502115413 | 67 | 0 | 0.0 | 0.0 | 0.00 | 0.33 | 0.28 | 96 | 1021.2 |
| 20260502113604 | 67 | 0 | 0.0 | 0.0 | 0.00 | 0.44 | 0.28 | 96 | 1021.1 |
| 20260502112704 | 67 | 0 | 0.0 | 0.0 | 0.00 | 0.49 | 0.28 | 96 | 1021.1 |
| 20260502111804 | 67 | 0 | 0.0 | 0.0 | 0.00 | 0.50 | 0.28 | 96 | 1021.0 |
| 20260502111117 | 67 | 0 | 0.0 | 0.0 | 0.00 | 0.54 | 0.28 | 96 | 1020.9 |
| 20260502110005 | 67 | 66 | 0.0 | 0.9 | 0.00 | 0.61 | 0.28 | 96 | 1021.1 |
| 20260502105404 | 67 | 66 | 0.0 | 0.9 | 0.00 | 0.62 | 0.28 | 96 | 1021.1 |
| 20260502104505 | 67 | 66 | 0.0 | 1.7 | 0.00 | 0.64 | 0.28 | 96 | 1021.0 |
| 20260502103603 | 67 | 200 | 0.9 | 3.5 | 0.00 | 0.65 | 0.28 | 95 | 1021.0 |
| 20260502102704 | 67 | 232 | 0.0 | 0.9 | 0.00 | 0.67 | 0.28 | 95 | 1021.1 |
| 20260502101804 | 67 | 0 | 0.0 | 0.0 | 0.00 | 0.69 | 0.28 | 95 | 1021.1 |
| 20260502100904 | 67 | 0 | 0.0 | 0.0 | 0.00 | 0.69 | 0.28 | 95 | 1021.0 |
| 20260502091119 | 68 | 0 | 0.0 | 0.0 | 0.01 | 0.69 | 0.28 | 94 | 1020.5 |
| 20260502070903 | 71 | 148 | 0.0 | 1.7 | 0.00 | 0.68 | 0.27 | 88 | 1019.3 |
| 20260502070005 | 71 | 153 | 0.0 | 1.7 | 0.00 | 0.68 | 0.27 | 87 | 1019.2 |
| 20260502065403 | 72 | 145 | 0.0 | 1.7 | 0.00 | 0.68 | 0.27 | 87 | 1019.3 |
| 20260502064506 | 72 | 152 | 0.9 | 3.5 | 0.00 | 0.68 | 0.27 | 87 | 1019.1 |
| 20260502063604 | 72 | 95 | 0.0 | 3.5 | 0.00 | 0.68 | 0.27 | 86 | 1019.1 |
| 20260502062704 | 72 | 122 | 2.6 | 8.7 | 0.00 | 0.68 | 0.27 | 86 | 1019.0 |
| 20260502061803 | 72 | 127 | 0.0 | 1.7 | 0.00 | 0.68 | 0.27 | 86 | 1019.0 |
| 20260502060904 | 72 | 140 | 0.0 | 3.5 | 0.00 | 0.68 | 0.27 | 86 | 1019.1 |
| 20260502060009 | 72 | 92 | 0.0 | 3.5 | 0.00 | 0.68 | 0.27 | 85 | 1019.2 |
| 20260502055404 | 72 | 114 | 0.9 | 3.5 | 0.00 | 0.68 | 0.27 | 84 | 1019.1 |
| 20260502054506 | 73 | 132 | 0.9 | 6.1 | 0.00 | 0.68 | 0.27 | 83 | 1019.3 |
| 20260502053609 | 74 | 125 | 4.3 | 13.0 | 0.00 | 0.68 | 0.27 | 82 | 1019.1 |
| 20260502052703 | 74 | 109 | 3.5 | 13.0 | 0.00 | 0.68 | 0.27 | 79 | 1019.0 |
| 20260502051804 | 74 | 99 | 0.9 | 5.2 | 0.00 | 0.68 | 0.27 | 82 | 1019.0 |
| 20260502050903 | 74 | 99 | 2.6 | 10.4 | 0.00 | 0.68 | 0.27 | 82 | 1019.1 |